Погода в Краскине

Россия / Приморский край     42°42′38″N   130°47′00″E
темп.,
°C
ветер,
м/с
пор.,
м/с
влажн.,
%
обл.,
%
осадки,
мм/ч
давл.,
гПа
погр.,
м
22 января, сб
сб2201:00−12сз22755 0.0 103134
04:00−13ссз22775 0.0 103039
07:00−13сз227733 0.0 103060
10:00−12сз2366100 0.0 103093
13:00−8зсз2246100 0.0 1029261
16:00−6зсз1240100 0.0 1027335
19:00−8зсз1159100 0.0 102731
22:00−8ссз1164100 0.0 102722
23 января, вс
вс2301:00−8ссз126799 0.0 102756
04:00−8сз2271100 0.0 102777
07:00−9сз2274100 0.0 102689
10:00−9сз2368100 0.0 1026125
13:00−5сз3544100 0.0 1026466
16:00−3зсз47415 0.0 1025760
19:00−6сз36600 0.0 1026165
22:00−9сз24690 0.0 102783
24 января, пн
пн2401:00−10сз23660 0.0 102774
04:00−11сз23680 0.0 102885
07:00−12сз24711 0.0 102786
10:00−11сз236520 0.0 1028112
13:00−6зсз224448 0.0 1027315
16:00−3зсз114118 0.0 1025418
19:00−7зсз1165100 0.0 102517
22:00−7с0169100 0.0 102513
25 января, вт
вт2501:00−7с1169100 0.0 102417
04:00−8сз1174100 0.0 102322
07:00−8сз117698 0.0 102232
10:00−7сз126998 0.0 102284
13:00−3з234783 0.0 1021347
16:00−1з23455 0.0 1019382
19:00−4сз116885 0.0 101914
22:00−5з017592 0.0 102011
26 января, ср
ср2601:00−7сз22795 0.0 102029
04:00−8сз23825 0.0 102071
07:00−9сз35815 0.0 1021124
10:00−9сз387460 0.0 1022240
13:00−5зсз685542 0.0 10221030
16:00−3зсз694946 0.0 10221474
19:00−6зсз510585 0.0 1024599
22:00−8зсз510661 0.0 1027491